Temperature
23 24 26 26 26 26 24 22 22 22 22 22 22 21 22 22 22 22 21 21 21 21 21 20 20 19 19 19 18 18 18 17 17 17 17 17 17 17 17 16 16 16 16 16
24 25 25 25 26 26 26 25 24 23 22 22 22 23 22 22 22 21 21 22 22 21 21 20 20 20 19 19 18 18 18 17 17 17 17 17 16 16 16 16 16 16 16 16
21 23 23 23 24 25 25 25 24 23 22 21 21 21 21 22 22 21 22 22 22 21 21 21 20 20 19 19 18 18 18 17 17 17 16 16 16 16 16 16 16 16 15 15
19 22 22 21 23 25 24 24 23 23 22 21 21 21 22 23 22 22 22 22 22 21 21 20 20 19 19 19 18 18 17 17 17 17 16 16 16 16 16 15 15 15 15 15
17 19 21 22 24 24 24 22 22 21 21 20 21 20 20 21 23 23 22 22 21 21 21 20 20 19 19 18 18 17 17 17 17 16 16 16 16 15 15 15 15 15 15 14
17 20 20 21 23 25 23 20 21 20 20 20 20 18 18 20 21 22 21 21 21 20 20 19 19 19 18 18 17 17 17 17 16 16 16 16 16 15 15 14 14 14 14 14
17 19 19 21 23 23 21 20 20 20 20 20 19 19 19 20 20 21 21 20 20 20 19 19 18 18 18 17 17 17 16 16 16 16 16 15 15 15 14 14 14 14 13 13
16 18 18 20 21 20 19 20 20 20 20 20 19 19 19 19 20 20 20 19 19 19 18 18 18 17 17 17 16 16 16 16 15 15 15 15 15 14 14 14 13 13 13 12
16 16 17 19 19 20 20 20 20 20 20 20 19 18 19 19 19 19 19 18 18 18 17 17 17 17 17 16 16 15 15 15 15 15 14 14 14 14 13 13 13 13 12 12
15 16 17 18 19 20 20 20 20 20 20 20 19 18 18 18 18 18 18 17 17 17 17 16 16 16 16 15 15 15 15 14 14 14 13 13 13 13 13 13 12 12 12 11
15 15 16 18 18 19 19 19 19 19 19 19 19 18 18 18 17 17 17 17 16 16 16 16 15 15 15 14 14 14 14 13 13 13 13 12 12 12 12 12 12 12 12 11
14 15 14 16 18 18 19 19 18 18 18 18 18 18 17 17 17 16 16 16 16 15 15 15 14 14 14 13 13 13 13 13 12 12 12 12 12 11 11 11 11 11 11 11
17 17 17 17 17 18 18 18 18 18 18 17 17 17 17 16 16 15 15 15 15 14 14 14 13 13 13 13 13 12 13 12 12 12 11 11 11 11 11 10 10 10 10 9
17 17 16 17 17 17 17 17 17 17 17 17 16 16 16 15 15 14 14 14 13 13 13 13 12 12 12 12 12 12 12 12 11 11 11 11 11 10 10 10 9 9 8 8
17 17 17 17 17 17 17 17 16 16 15 15 15 15 15 14 14 13 13 12 12 12 12 11 11 11 11 11 11 11 11 11 11 10 10 10 10 10 9 9 9 9 8 8
17 17 17 16 16 16 16 16 16 15 15 14 14 14 13 13 13 12 12 12 12 11 11 11 11 10 10 10 10 10 10 10 10 10 10 10 9 9 9 9 9 8 8 8
16 16 16 16 16 15 15 15 15 15 14 14 13 12 12 12 11 11 11 11 11 10 10 10 10 10 10 10 10 10 10 9 9 9 9 9 9 9 8 8 8 8 7 7
17 17 16 16 15 15 15 14 14 14 13 13 12 12 11 11 11 10 10 10 10 9 9 9 9 9 9 9 9 9 9 9 9 9 9 9 8 8 8 8 8 7 7 7
16 16 16 16 15 15 14 14 14 13 13 12 11 11 11 10 10 10 9 9 9 9 9 9 9 9 9 9 9 9 9 8 8 8 8 8 8 8 8 8 7 7 7 7
15 15 15 15 15 14 14 13 13 12 12 11 11 10 10 9 9 9 9 9 9 9 9 8 8 9 8 8 8 8 8 8 8 8 8 8 8 8 8 7 7 7 7 7
14 14 14 14 14 13 13 13 12 12 11 10 10 10 10 9 9 9 8 8 8 8 8 8 8 8 8 8 8 8 8 8 8 8 8 8 8 8 8 7 7 7 7 7
13 13 13 13 13 12 12 12 11 11 10 10 9 9 9 9 8 8 8 8 8 8 8 8 8 8 8 8 8 8 8 8 8 8 8 8 8 8 8 7 7 7 7 7
12 12 12 12 12 11 11 11 10 10 10 9 9 9 9 9 9 8 8 8 8 8 8 8 8 8 8 8 8 8 8 8 8 8 8 8 8 8 8 7 7 7 7 7
11 11 11 11 11 10 10 10 10 9 9 9 9 9 9 9 9 9 9 8 8 8 8 8 8 8 8 9 8 8 8 8 8 8 8 8 8 8 8 8 8 7 7 7
10 10 10 10 10 10 10 9 9 9 9 9 9 9 9 9 9 9 9 9 9 9 8 8 9 9 9 9 9 9 9 9 9 9 9 9 8 8 8 8 8 8 8 7
10 10 10 10 10 9 9 9 9 9 9 9 9 9 9 9 9 9 9 9 9 9 8 8 9 9 9 9 9 9 9 9 9 9 9 9 9 8 8 8 8 8 8 8
9 9 9 9 9 9 9 9 9 9 9 9 9 9 9 9 9 9 9 9 9 9 9 9 9 9 9 9 9 9 9 9 9 9 9 9 9 8 8 8 8 8 8 8
Wind_Speed
6 6 3 1 4 3 4 9 9 10 10 12 11 11 12 12 13 13 12 11 11 11 10 9 8 8 7 7 6 7 7 6 6 5 4 4 3 3 3 3 4 4 5 5
1 2 3 2 5 6 5 5 7 7 7 8 8 8 10 12 14 15 14 13 12 11 11 10 10 9 8 7 7 7 7 6 6 5 5 4 4 4 4 4 4 4 5 5
1 2 5 4 4 4 6 5 6 8 9 8 8 11 14 13 13 13 13 12 12 11 11 10 10 9 8 8 7 7 7 6 6 6 6 5 5 5 5 4 5 5 5 5
3 3 4 9 6 3 3 4 2 5 7 12 10 7 6 8 11 11 11 11 11 10 9 8 7 8 7 7 7 7 7 6 7 7 6 5 5 5 5 4 5 5 5 6
4 4 6 7 5 2 1 4 3 6 9 10 12 9 6 3 8 10 9 9 9 9 8 8 8 8 8 7 6 7 7 7 7 7 7 7 6 5 5 5 6 5 6 7
4 5 7 7 6 2 5 1 3 5 10 10 8 6 3 3 7 9 8 8 9 9 8 8 7 8 8 7 6 6 6 6 6 7 8 8 7 6 5 6 6 6 6 7
5 4 6 6 5 3 3 6 3 4 8 7 4 6 8 8 8 9 9 9 9 9 8 6 6 8 8 6 5 5 6 6 6 6 7 7 7 6 7 7 7 7 8 6
5 4 7 6 4 3 5 3 4 6 7 8 10 11 10 10 10 10 10 9 8 9 7 5 5 7 7 5 4 5 6 7 6 6 6 7 7 6 7 8 8 8 8 7
6 6 4 1 4 3 4 6 5 6 8 12 12 10 10 9 9 8 9 8 8 9 8 6 5 6 6 3 5 7 7 6 6 6 6 7 8 8 7 6 6 7 7 7
3 1 2 5 6 6 6 6 5 7 9 11 11 10 9 8 8 7 7 8 7 8 8 5 4 4 4 4 5 7 7 6 6 6 6 6 5 5 6 6 6 7 7 7
2 0 4 5 5 5 7 9 9 8 8 8 11 10 8 7 7 7 8 7 7 7 6 5 4 4 4 3 5 7 7 6 6 6 6 6 5 4 4 3 5 8 7 7
3 4 3 1 1 5 8 7 8 9 9 7 8 9 9 8 6 7 7 7 7 6 5 4 4 4 3 3 5 7 6 6 5 6 6 7 7 7 11 8 8 9 9 8
4 3 4 3 3 5 7 7 8 9 9 8 7 8 9 7 6 7 7 7 7 6 5 4 4 3 3 4 5 6 6 6 6 6 6 7 7 8 7 8 12 11 11 12
4 5 4 3 3 5 7 8 9 9 8 8 8 8 9 8 7 7 7 5 5 6 5 4 4 3 3 4 5 5 6 7 7 6 6 6 7 7 7 8 8 6 7 10
3 4 5 4 4 5 6 8 10 9 7 7 8 8 8 8 7 6 5 5 6 6 5 4 4 3 2 4 5 6 6 6 6 6 6 6 7 7 7 8 8 7 6 6
4 4 6 5 5 5 7 9 10 8 8 7 7 7 7 7 7 6 6 5 6 5 4 4 4 3 3 4 5 5 5 10 9 7 7 7 7 7 7 7 7 7 7 6
6 6 6 6 6 6 6 7 8 9 8 8 7 8 8 8 7 6 5 5 5 5 4 4 3 3 4 4 5 5 5 8 11 8 6 6 6 7 7 7 7 7 6 6
7 7 8 9 8 8 7 7 8 9 9 8 9 8 8 7 7 6 5 6 6 5 4 4 4 4 4 5 5 5 5 5 5 6 6 6 6 7 6 6 7 7 5 5
4 6 7 8 9 10 9 8 8 8 9 9 10 8 7 7 6 6 6 6 6 5 3 3 6 5 4 5 6 4 5 5 5 5 5 7 7 6 6 6 6 6 6 5
4 5 7 8 8 9 9 9 9 9 9 9 9 9 8 7 6 6 6 4 3 3 4 5 5 4 4 4 6 4 5 5 5 5 5 6 6 7 6 7 7 7 6 6
5 6 8 9 9 9 9 9 10 10 8 8 9 9 8 7 6 6 6 4 2 3 5 6 4 4 3 4 5 4 4 4 5 5 6 6 6 6 6 6 7 7 7 6
5 6 8 9 10 9 8 8 8 9 8 8 8 8 8 7 6 5 4 3 4 5 4 3 3 4 5 5 3 4 4 4 4 5 5 5 6 6 7 7 7 7 7 7
6 7 8 9 10 9 8 7 8 8 8 8 7 7 7 6 5 5 4 3 4 6 4 3 5 7 6 3 3 4 4 5 4 5 5 6 6 6 7 7 7 7 7 7
7 8 8 8 9 9 8 6 6 6 7 6 6 6 5 5 3 3 3 6 7 6 4 4 7 7 5 3 3 3 4 4 4 5 5 5 5 6 6 6 6 7 7 8
7 7 8 8 8 6 6 7 7 6 6 4 4 4 3 3 4 4 4 5 7 6 3 4 5 5 3 2 3 3 3 4 5 5 5 5 5 6 6 6 6 7 7 7
7 6 6 5 5 5 5 5 5 5 5 4 3 2 3 3 4 4 4 4 5 5 4 2 2 2 2 2 2 3 3 4 4 4 5 5 6 6 6 6 7 7 7 7
7 6 6 5 4 4 5 5 5 4 4 4 3 2 2 3 4 4 4 4 3 3 2 2 2 2 2 2 3 3 4 4 4 5 5 5 5 6 7 8 7 6 7 7
Wind_Direction
184 197 172 249 289 267 199 194 192 215 201 211 202 180 170 164 154 157 164 165 165 167 167 167 164 165 165 167 163 160 156 162 172 168 158 150 143 142 137 138 148 147 142 141
46 38 53 338 304 294 268 226 206 186 216 218 181 155 161 166 160 163 170 170 168 166 166 167 167 166 165 165 164 157 158 164 160 148 143 140 139 134 128 129 125 120 127 133
243 358 37 296 252 266 282 264 203 205 214 166 153 165 171 168 162 165 168 165 165 167 170 169 168 165 164 164 158 154 156 154 149 145 142 141 139 130 130 126 119 117 119 122
144 83 229 245 251 231 289 311 266 169 168 160 155 151 148 151 154 157 157 157 160 159 153 151 151 151 152 148 148 150 150 151 149 145 143 139 134 132 127 119 118 121 122 123
129 180 260 288 293 258 189 330 336 136 139 131 121 89 49 103 139 142 141 144 141 138 136 134 136 139 136 139 142 145 150 153 154 150 146 141 136 131 125 119 114 114 116 117
135 166 219 247 279 277 104 353 308 140 145 146 127 125 179 154 129 126 121 122 123 122 116 119 126 126 125 134 138 149 156 155 151 150 151 150 144 136 125 121 117 111 107 113
162 196 246 263 299 45 133 217 252 151 149 144 137 153 150 125 111 114 110 111 115 114 115 121 124 122 125 131 143 148 140 134 133 136 139 137 132 128 125 120 115 110 108 105
159 184 243 296 34 115 191 182 127 113 120 114 112 115 120 115 113 115 111 109 113 111 108 110 119 125 127 137 143 134 129 128 127 128 131 130 125 122 123 126 123 117 110 100
181 202 247 327 115 131 129 122 124 121 125 123 120 120 118 113 113 113 116 116 113 116 113 102 103 119 130 136 134 131 127 128 128 125 124 130 132 132 128 127 131 129 126 122
91 44 30 52 70 71 84 100 104 116 122 123 121 124 119 117 112 107 105 112 114 113 113 110 105 104 112 125 133 135 135 134 132 134 129 125 128 137 141 143 143 141 140 137
91 191 40 29 47 72 73 83 89 92 98 112 119 119 119 116 113 110 107 105 109 115 120 120 112 103 102 117 130 133 136 137 134 134 134 124 108 92 126 137 158 153 154 151
199 220 159 202 33 84 86 88 99 100 88 93 110 115 112 109 106 105 107 109 109 109 112 117 118 118 117 127 137 140 142 144 143 139 136 131 123 92 58 74 96 110 122 133
175 176 150 151 94 85 99 103 101 106 110 106 102 110 109 106 102 101 101 107 114 114 113 120 124 120 125 134 135 144 152 152 146 144 144 143 140 133 116 75 72 87 108 121
138 120 106 118 125 103 103 109 104 96 92 101 107 106 105 102 100 101 105 110 111 107 106 111 115 115 119 128 135 144 147 148 143 143 144 143 142 139 138 136 126 97 87 111
146 143 157 142 118 110 111 115 108 102 98 93 100 108 111 113 111 108 107 109 107 103 103 106 106 103 115 128 131 136 138 139 137 136 137 136 135 133 132 131 131 129 120 111
172 135 127 123 127 129 120 120 123 125 119 110 108 113 116 115 111 105 101 104 113 112 109 109 109 109 111 123 126 128 135 140 140 138 138 137 137 136 136 138 139 143 148 151
159 158 148 147 146 141 139 138 137 136 129 124 123 121 118 113 109 109 108 106 108 108 108 112 114 110 107 115 120 123 125 138 139 136 139 141 141 143 145 146 148 152 158 168
168 171 163 161 159 150 145 137 136 137 137 136 130 125 126 130 134 135 130 118 110 103 97 104 110 112 108 108 113 118 123 126 131 133 134 137 139 140 142 146 150 152 154 160
152 153 146 144 147 145 143 143 143 138 136 134 131 131 131 131 134 133 128 125 128 131 138 132 129 121 117 121 121 116 120 122 124 129 135 141 139 140 143 146 148 151 154 157
105 124 129 127 126 130 133 134 134 132 134 133 130 130 130 132 135 134 128 125 140 152 147 143 141 137 138 142 136 130 136 142 144 146 144 144 147 150 154 157 159 161 165 169
99 108 117 122 121 122 127 130 132 131 132 134 136 138 138 137 137 136 134 132 140 138 144 147 144 143 148 151 150 147 149 149 148 150 153 153 154 158 161 164 167 172 176 177
113 114 114 116 117 116 117 119 124 128 128 128 130 132 133 134 134 128 132 149 158 149 141 143 145 151 152 147 147 149 153 154 153 155 160 162 163 166 169 171 174 179 182 184
105 111 114 117 120 121 116 117 125 132 133 134 136 139 142 145 149 149 155 175 158 154 148 158 166 163 160 153 149 154 159 161 163 167 170 172 172 172 175 180 184 186 188 192
100 103 107 112 114 117 120 123 125 128 129 129 133 138 141 141 142 163 162 163 162 156 156 169 171 169 159 149 153 161 169 172 173 175 176 176 177 177 178 182 187 192 195 198
100 102 106 113 116 120 121 122 116 116 118 124 132 136 142 149 156 167 157 155 158 151 151 171 175 172 165 156 165 171 177 180 180 178 179 179 181 185 189 192 193 193 197 202
94 95 97 105 116 121 125 124 123 128 128 125 125 128 129 134 139 139 139 148 154 153 157 170 181 172 169 176 181 183 185 184 183 186 187 187 189 189 192 196 199 200 203 206
83 85 88 90 92 102 110 116 121 125 130 133 130 121 122 126 131 140 143 145 149 152 165 186 195 201 211 217 221 216 212 206 201 201 200 198 195 198 202 202 203 205 207 208
Height
1472 1469 1467 1469 1470 1471 1479 1486 1494 1489 1487 1480 1477 1477 1479 1481 1483 1488 1492 1495 1498 1501 1504 1506 1508 1509 1510 1512 1513 1514 1516 1517 1518 1519 1520 1521 1522 1523 1524 1525 1526 1527 1529 1531
1470 1465 1466 1469 1468 1468 1469 1470 1474 1476 1479 1469 1470 1474 1478 1480 1482 1485 1489 1493 1496 1499 1502 1504 1506 1508 1509 1510 1512 1513 1514 1516 1517 1518 1519 1520 1521 1522 1522 1523 1524 1526 1527 1528
1482 1471 1471 1480 1469 1467 1467 1463 1466 1474 1471 1467 1471 1472 1474 1477 1480 1483 1486 1490 1493 1497 1500 1502 1504 1506 1508 1509 1511 1512 1513 1515 1516 1517 1518 1519 1520 1520 1521 1522 1523 1524 1525 1526
1484 1479 1492 1479 1460 1459 1462 1462 1459 1459 1461 1463 1466 1470 1472 1474 1477 1481 1485 1488 1491 1495 1498 1501 1503 1505 1507 1508 1509 1510 1512 1513 1514 1515 1516 1517 1518 1519 1520 1520 1521 1522 1523 1525
1490 1492 1485 1469 1459 1458 1463 1467 1460 1459 1461 1464 1466 1470 1475 1476 1477 1480 1483 1486 1490 1493 1496 1499 1501 1503 1505 1507 1508 1509 1510 1511 1513 1514 1515 1516 1516 1517 1518 1518 1519 1520 1521 1523
1486 1489 1492 1473 1456 1453 1459 1473 1462 1460 1461 1463 1465 1475 1479 1476 1477 1480 1483 1487 1489 1492 1496 1498 1500 1502 1504 1505 1507 1507 1508 1510 1511 1512 1513 1514 1515 1516 1517 1517 1518 1519 1520 1521
1483 1486 1478 1461 1454 1454 1473 1474 1463 1460 1460 1462 1464 1468 1473 1475 1477 1480 1483 1487 1490 1492 1495 1497 1499 1500 1502 1503 1504 1505 1507 1508 1509 1510 1511 1512 1513 1514 1515 1516 1516 1517 1518 1520
1482 1486 1482 1458 1455 1461 1465 1461 1461 1461 1462 1463 1465 1469 1472 1474 1477 1480 1483 1486 1489 1491 1494 1496 1498 1499 1499 1500 1502 1503 1505 1506 1507 1509 1510 1511 1511 1512 1513 1514 1515 1516 1517 1519
1471 1473 1464 1457 1457 1459 1458 1460 1461 1462 1464 1465 1467 1470 1473 1475 1478 1481 1483 1486 1488 1490 1493 1495 1496 1497 1498 1499 1500 1501 1503 1504 1505 1506 1507 1509 1510 1511 1511 1513 1514 1515 1516 1518
1466 1465 1462 1460 1459 1460 1460 1461 1463 1464 1466 1466 1468 1472 1474 1476 1478 1481 1483 1485 1487 1490 1492 1493 1494 1495 1496 1497 1498 1499 1500 1501 1503 1504 1505 1506 1508 1509 1510 1511 1512 1514 1515 1516
1466 1465 1462 1462 1462 1462 1462 1463 1465 1467 1468 1470 1470 1473 1475 1477 1479 1480 1482 1485 1487 1488 1490 1491 1492 1493 1494 1495 1495 1496 1497 1499 1500 1501 1503 1504 1505 1507 1508 1510 1511 1512 1514 1516
1467 1463 1463 1464 1464 1464 1464 1466 1467 1468 1470 1472 1472 1473 1475 1477 1479 1480 1482 1484 1485 1486 1488 1489 1489 1490 1491 1492 1493 1494 1495 1496 1497 1499 1500 1501 1503 1505 1507 1509 1511 1513 1514 1516
1460 1461 1462 1463 1464 1465 1465 1466 1468 1469 1470 1472 1474 1475 1476 1477 1479 1480 1481 1483 1484 1484 1485 1486 1487 1488 1488 1489 1490 1492 1493 1493 1495 1496 1498 1499 1501 1503 1504 1507 1510 1512 1513 1515
1460 1460 1462 1463 1464 1465 1466 1466 1468 1469 1471 1473 1474 1475 1476 1477 1479 1479 1480 1482 1483 1483 1483 1484 1484 1485 1486 1487 1488 1489 1490 1491 1493 1494 1496 1498 1500 1501 1503 1505 1507 1510 1513 1515
1460 1461 1462 1463 1464 1465 1466 1467 1468 1470 1471 1473 1474 1474 1476 1477 1478 1479 1480 1481 1481 1482 1482 1482 1483 1484 1484 1485 1486 1487 1488 1489 1491 1493 1495 1497 1499 1501 1503 1505 1506 1509 1511 1514
1459 1460 1461 1462 1463 1464 1465 1467 1467 1469 1471 1472 1473 1474 1475 1477 1477 1478 1479 1480 1480 1480 1481 1481 1482 1482 1483 1484 1485 1486 1487 1488 1490 1492 1494 1496 1498 1500 1502 1504 1506 1508 1511 1513
1457 1458 1460 1461 1463 1464 1465 1466 1467 1468 1470 1471 1473 1474 1475 1476 1477 1478 1479 1479 1480 1480 1480 1481 1481 1482 1483 1484 1484 1485 1486 1488 1490 1492 1494 1496 1498 1500 1502 1504 1506 1509 1511 1514
1454 1456 1457 1459 1461 1463 1464 1465 1466 1468 1469 1471 1472 1473 1474 1475 1476 1477 1478 1478 1479 1480 1480 1481 1482 1482 1483 1484 1485 1486 1487 1488 1490 1492 1494 1496 1498 1500 1503 1505 1507 1509 1511 1514
1452 1454 1455 1457 1459 1460 1462 1464 1466 1467 1468 1469 1470 1472 1473 1475 1476 1477 1478 1478 1479 1480 1481 1482 1483 1483 1484 1485 1486 1487 1489 1490 1492 1494 1496 1498 1500 1502 1504 1506 1508 1510 1513 1515
1450 1451 1453 1455 1457 1459 1460 1463 1464 1466 1467 1468 1470 1471 1473 1474 1476 1477 1478 1479 1480 1481 1482 1484 1484 1485 1486 1488 1489 1490 1491 1492 1494 1495 1497 1499 1501 1503 1505 1507 1510 1511 1514 1516
1448 1450 1451 1453 1455 1457 1459 1461 1463 1465 1466 1468 1470 1471 1473 1475 1476 1478 1479 1480 1482 1483 1484 1486 1486 1487 1488 1490 1491 1492 1493 1495 1496 1497 1499 1501 1502 1504 1506 1508 1510 1512 1514 1516
1448 1449 1451 1452 1454 1457 1460 1462 1464 1465 1467 1469 1470 1472 1474 1476 1477 1479 1481 1482 1484 1485 1486 1487 1488 1490 1491 1492 1493 1494 1495 1497 1498 1499 1501 1502 1503 1505 1506 1508 1510 1512 1514 1516
1448 1449 1451 1453 1455 1458 1461 1463 1465 1467 1468 1470 1472 1473 1475 1477 1479 1481 1482 1484 1486 1487 1488 1489 1491 1492 1493 1494 1495 1496 1497 1498 1500 1501 1502 1503 1504 1506 1507 1508 1510 1512 1514 1515
1449 1451 1453 1455 1457 1459 1462 1465 1467 1469 1471 1473 1475 1476 1478 1480 1482 1483 1485 1486 1487 1489 1490 1491 1492 1494 1495 1496 1497 1498 1499 1500 1501 1502 1503 1504 1505 1506 1507 1508 1510 1511 1513 1514
1452 1453 1455 1458 1459 1462 1464 1467 1469 1471 1473 1475 1478 1480 1482 1483 1484 1485 1487 1488 1489 1490 1491 1493 1494 1495 1496 1497 1498 1499 1500 1501 1501 1502 1503 1504 1505 1506 1507 1508 1509 1511 1512 1513
1455 1457 1459 1461 1463 1465 1467 1469 1471 1474 1476 1478 1480 1482 1483 1485 1486 1487 1488 1489 1490 1491 1492 1494 1495 1496 1497 1498 1499 1500 1500 1501 1502 1502 1503 1504 1504 1505 1506 1507 1508 1509 1510 1511
1460 1461 1463 1465 1467 1469 1471 1473 1475 1477 1479 1480 1482 1483 1484 1486 1487 1488 1489 1490 1491 1492 1493 1494 1495 1496 1497 1498 1499 1499 1500 1501 1501 1502 1502 1502 1503 1504 1504 1505 1506 1506 1507 1508